Flag for Kazakhstan Weather past 2 weeks in Astana, Kazakhstan

Now
70 °F

Partly sunny.


Feels Like: 70 °F
Forecast: 53 / 68 °F
Wind: 8 mph from West

Location: Astana

Current Time: Jul 28, 2015 at 9:18:15 PM

Latest Report: Jul 28, 2015 at 8:30 PM


Visibility: N/A

Pressure: 29.65 "Hg

Humidity: 40%

Dew point: 45 °F

Location of AstanaLocation

Historic Weather in Astana — Graph

°F

Astana temperature yesterday

Maximum temperature yesterday: 72 °F (at 2:00 PM)
Minimum temperature yesterday: 54 °F (at 6:00 AM)
Average temperature yesterday: 62 °F

Past Weeks' High & Low Weather Summary

 TemperatureHumidityPressure
High102 °F (Jul 18, 3:00 PM)88% (Jul 19, 3:00 AM)30.01 "Hg (Jul 19, 3:00 AM)
Low48 °F (Jul 20, 5:30 AM)11% (Jul 18, 3:00 PM)29.36 "Hg (Jul 18, 2:30 PM)
Average72 °F50%29.75 "Hg
* Reported Jul 13 8:00 PM — Jul 28 8:00 PM, Astana, Weather by CustomWeather, © 2015

Note: Actual official high and low records may vary slightly from our data, if they occured in-between our weather recording intervals... More about our weather records

Advertising

Astana weather history for previous 24 hours

 ConditionsComfort  
Time TempWeatherWind HumidityBarometerVisibility
8:00 PM
Tue, Jul 28
70 °FPartly sunny.6 mph40%29.65 "HgN/A
7:30 PM70 °FSunny.8 mph40%29.65 "Hg10 mi
7:00 PM72 °FSunny.15 mph36%29.65 "Hg10 mi
6:30 PM70 °FSunny.8 mph40%29.65 "Hg10 mi
6:00 PM70 °FSunny.10 mph38%29.65 "Hg10 mi
5:30 PM72 °FSunny.10 mph38%29.65 "Hg10 mi
5:00 PM73 °FPassing clouds.13 mph36%29.65 "HgN/A
4:30 PM70 °FPassing clouds.10 mph40%29.68 "HgN/A
4:00 PM72 °FPassing clouds.8 mph41%29.65 "HgN/A
3:30 PM72 °FPassing clouds.10 mph36%29.65 "HgN/A
3:00 PM70 °FPartly sunny.13 mph40%29.68 "HgN/A
2:30 PM70 °FPartly sunny.13 mph43%29.65 "HgN/A
2:00 PM70 °FPartly sunny.13 mph43%29.65 "HgN/A
1:30 PM68 °FPartly sunny.10 mph46%29.65 "HgN/A
1:00 PM68 °FPartly sunny.13 mph46%29.65 "HgN/A
12:30 PM70 °FPartly sunny.15 mph43%29.65 "HgN/A
12:00 PM70 °FPartly sunny.15 mph43%29.65 "HgN/A
11:30 AM66 °FPartly sunny.13 mph49%29.65 "HgN/A
11:00 AM66 °FPartly sunny.10 mph52%29.65 "HgN/A
10:30 AM64 °FPartly sunny.10 mph56%29.65 "HgN/A
9:30 AM63 °FScattered clouds.10 mph64%29.65 "HgN/A
9:00 AM61 °FPassing clouds.8 mph68%29.65 "HgN/A
8:30 AM59 °FSunny.8 mph68%29.65 "Hg10 mi
8:00 AM57 °FSunny.6 mph72%29.65 "Hg10 mi
7:30 AM55 °FSunny.6 mph72%29.65 "Hg10 mi
7:00 AM52 °FPassing clouds.8 mph82%29.65 "HgN/A
6:30 AM52 °FClear.10 mph82%29.65 "Hg10 mi
6:00 AM54 °FClear.10 mph77%29.62 "Hg10 mi
5:30 AM54 °FClear.10 mph77%29.62 "Hg10 mi
5:00 AM54 °FClear.8 mph77%29.62 "Hg10 mi
4:30 AM48 °FClear.8 mph87%29.62 "Hg10 mi
4:00 AM52 °FClear.8 mph82%29.62 "Hg10 mi
3:30 AM52 °FClear.3 mph82%29.62 "Hg10 mi
3:00 AM54 °FClear.6 mph77%29.62 "Hg10 mi
2:30 AM54 °FClear.8 mph77%29.62 "Hg10 mi
2:00 AM55 °FClear.8 mph72%29.62 "Hg10 mi
1:30 AM55 °FClear.6 mph72%29.62 "Hg10 mi
1:00 AM55 °FClear.6 mph72%29.62 "Hg10 mi
12:30 AM55 °FClear.8 mph72%29.62 "Hg10 mi
12:00 AM55 °FClear.8 mph72%29.62 "Hg10 mi
11:30 PM
Mon, Jul 27
57 °FClear.10 mph67%29.62 "Hg10 mi
11:00 PM57 °FClear.8 mph67%29.62 "Hg10 mi
10:30 PM59 °FClear.8 mph59%29.62 "Hg10 mi
10:00 PM61 °FSunny.8 mph55%29.62 "Hg10 mi
9:30 PM63 °FSunny.6 mph52%29.62 "Hg10 mi
9:00 PM63 °FSunny.6 mph52%29.62 "Hg10 mi
Weather by CustomWeather, © 2015

See weather overviewHow to use our weather pages